TFKRA EPWA-EPMO

Flight info

Callsign TFKRA
Flight time 0h 29m
Altitude 4000
Route SOSIN DCT KUKOP DCT OGRAR/N0111F030
Aircraft C172/L-SFG/C

Departure

Time 2026-04-15 13:14
Airport Warsaw Chopin Airport (EPWA)

Arrival

Time 2026-04-15 13:43
Airport Warsaw Modlin Airport (EPMO)
Time Latitude Longitude Altitude Speed Heading
2026-04-15 13:14 52.12456 20.77305 3204 ft 86 kts 274°
2026-04-15 13:14 52.12515 20.76341 3311 ft 86 kts 275°
2026-04-15 13:14 52.12575 20.75377 3418 ft 86 kts 275°
2026-04-15 13:14 52.12637 20.74406 3523 ft 85 kts 275°
2026-04-15 13:15 52.12699 20.73445 3627 ft 85 kts 275°
2026-04-15 13:15 52.12761 20.72483 3729 ft 85 kts 275°
2026-04-15 13:15 52.12825 20.71506 3787 ft 91 kts 275°
2026-04-15 13:15 52.12897 20.70427 3794 ft 99 kts 276°
2026-04-15 13:16 52.12976 20.69277 3794 ft 106 kts 276°
2026-04-15 13:16 52.13058 20.68098 3788 ft 102 kts 277°
2026-04-15 13:16 52.13133 20.66978 3787 ft 97 kts 276°
2026-04-15 13:16 52.13203 20.65912 3788 ft 93 kts 276°
2026-04-15 13:17 52.13271 20.64857 3790 ft 94 kts 276°
2026-04-15 13:17 52.13338 20.63802 3791 ft 95 kts 276°
2026-04-15 13:17 52.13407 20.62727 3791 ft 96 kts 276°
2026-04-15 13:17 52.13478 20.61627 3791 ft 97 kts 276°
2026-04-15 13:18 52.13548 20.60537 3791 ft 98 kts 276°
2026-04-15 13:18 52.13620 20.59423 3790 ft 98 kts 276°
2026-04-15 13:18 52.13691 20.58329 3790 ft 98 kts 276°
2026-04-15 13:18 52.13762 20.57212 3790 ft 98 kts 276°
2026-04-15 13:19 52.13833 20.56103 3790 ft 99 kts 276°
2026-04-15 13:19 52.13904 20.54990 3790 ft 99 kts 276°
2026-04-15 13:19 52.13975 20.53884 3790 ft 99 kts 276°
2026-04-15 13:19 52.14046 20.52771 3790 ft 99 kts 276°
2026-04-15 13:20 52.14117 20.51648 3790 ft 99 kts 276°
2026-04-15 13:20 52.14187 20.50542 3790 ft 99 kts 276°
2026-04-15 13:20 52.14258 20.49421 3790 ft 99 kts 276°
2026-04-15 13:20 52.14328 20.48307 3790 ft 99 kts 276°
2026-04-15 13:21 52.14398 20.47206 3790 ft 99 kts 276°
2026-04-15 13:21 52.14468 20.46093 3790 ft 99 kts 276°
2026-04-15 13:21 52.14538 20.44980 3790 ft 99 kts 276°
2026-04-15 13:21 52.14609 20.43853 3790 ft 99 kts 276°
2026-04-15 13:22 52.14679 20.42739 3790 ft 99 kts 276°
2026-04-15 13:22 52.14842 20.41676 3788 ft 99 kts 304°
2026-04-15 13:22 52.15393 20.41023 3791 ft 98 kts 338°
2026-04-15 13:22 52.16040 20.40676 3790 ft 99 kts 344°
2026-04-15 13:23 52.16706 20.40378 3790 ft 99 kts 345°
2026-04-15 13:23 52.17375 20.40098 3790 ft 99 kts 346°
2026-04-15 13:23 52.18044 20.39827 3790 ft 99 kts 346°
2026-04-15 13:23 52.18714 20.39562 3790 ft 99 kts 347°
2026-04-15 13:24 52.19378 20.39302 3790 ft 99 kts 347°
2026-04-15 13:24 52.20055 20.39039 3790 ft 99 kts 347°
2026-04-15 13:24 52.20722 20.38781 3790 ft 99 kts 347°
2026-04-15 13:24 52.21392 20.38522 3790 ft 99 kts 347°
2026-04-15 13:25 52.22064 20.38262 3790 ft 99 kts 347°
2026-04-15 13:25 52.22735 20.38003 3790 ft 99 kts 347°
2026-04-15 13:25 52.23410 20.37743 3790 ft 99 kts 347°
2026-04-15 13:25 52.24073 20.37487 3790 ft 99 kts 347°
2026-04-15 13:26 52.24749 20.37226 3790 ft 99 kts 347°
2026-04-15 13:26 52.25423 20.36966 3790 ft 99 kts 347°
2026-04-15 13:26 52.26091 20.36707 3790 ft 99 kts 347°
2026-04-15 13:26 52.26764 20.36447 3790 ft 99 kts 347°
2026-04-15 13:27 52.27429 20.36190 3790 ft 99 kts 347°
2026-04-15 13:27 52.28105 20.35929 3790 ft 99 kts 347°
2026-04-15 13:27 52.28773 20.35671 3790 ft 99 kts 347°
2026-04-15 13:27 52.29447 20.35410 3790 ft 99 kts 347°
2026-04-15 13:28 52.30115 20.35151 3790 ft 99 kts 347°
2026-04-15 13:28 52.30765 20.34900 3790 ft 99 kts 346°
2026-04-15 13:28 52.31436 20.34640 3790 ft 99 kts 346°
2026-04-15 13:28 52.32111 20.34378 3790 ft 99 kts 346°
2026-04-15 13:29 52.32778 20.34119 3790 ft 99 kts 346°
2026-04-15 13:29 52.33448 20.33860 3790 ft 99 kts 346°
2026-04-15 13:29 52.34119 20.33600 3790 ft 99 kts 346°
2026-04-15 13:29 52.34793 20.33338 3790 ft 99 kts 346°
2026-04-15 13:30 52.35462 20.33079 3790 ft 99 kts 346°
2026-04-15 13:30 52.36133 20.32818 3790 ft 99 kts 346°
2026-04-15 13:30 52.36806 20.32557 3790 ft 99 kts 346°
2026-04-15 13:30 52.37473 20.32298 3790 ft 99 kts 346°
2026-04-15 13:31 52.38145 20.32037 3790 ft 99 kts 346°
2026-04-15 13:31 52.38818 20.31776 3790 ft 99 kts 346°
2026-04-15 13:31 52.39492 20.31513 3790 ft 99 kts 346°
2026-04-15 13:31 52.40163 20.31253 3790 ft 99 kts 346°
2026-04-15 13:32 52.40835 20.30999 3789 ft 99 kts 351°
2026-04-15 13:32 52.41479 20.31281 3789 ft 99 kts 38°
2026-04-15 13:32 52.41842 20.32219 3791 ft 98 kts 72°
2026-04-15 13:32 52.42014 20.33333 3704 ft 105 kts 78°
2026-04-15 13:33 52.42149 20.34488 3530 ft 103 kts 80°
2026-04-15 13:33 52.42271 20.35633 3355 ft 102 kts 81°
2026-04-15 13:33 52.42388 20.36783 3178 ft 102 kts 81°
2026-04-15 13:33 52.42515 20.37915 3001 ft 100 kts 94°
2026-04-15 13:34 52.42368 20.39021 2830 ft 100 kts 102°
2026-04-15 13:34 52.42229 20.40128 2656 ft 100 kts 102°
2026-04-15 13:34 52.42092 20.41228 2529 ft 95 kts 102°
2026-04-15 13:34 52.41958 20.42303 2455 ft 98 kts 101°
2026-04-15 13:35 52.41816 20.43408 2383 ft 101 kts 102°
2026-04-15 13:35 52.41694 20.44559 2308 ft 103 kts 90°
2026-04-15 13:35 52.41729 20.45741 2235 ft 104 kts 87°
2026-04-15 13:35 52.41767 20.46929 2180 ft 104 kts 86°
2026-04-15 13:36 52.41806 20.48092 2130 ft 103 kts 86°
2026-04-15 13:36 52.41846 20.49270 2079 ft 102 kts 86°
2026-04-15 13:36 52.41886 20.50439 2029 ft 102 kts 86°
2026-04-15 13:36 52.41925 20.51596 1979 ft 102 kts 86°
2026-04-15 13:37 52.41964 20.52765 1929 ft 102 kts 86°
2026-04-15 13:37 52.42003 20.53918 1879 ft 102 kts 86°
2026-04-15 13:37 52.42052 20.55073 1829 ft 102 kts 83°
2026-04-15 13:37 52.42148 20.56230 1779 ft 102 kts 82°
2026-04-15 13:38 52.42249 20.57387 1729 ft 102 kts 82°
2026-04-15 13:38 52.42348 20.58533 1679 ft 102 kts 82°
2026-04-15 13:38 52.42448 20.59676 1629 ft 102 kts 82°
2026-04-15 13:38 52.42549 20.60829 1579 ft 102 kts 81°
2026-04-15 13:39 52.42650 20.61986 1529 ft 102 kts 81°
2026-04-15 13:39 52.42750 20.63141 1479 ft 102 kts 82°
2026-04-15 13:39 52.42851 20.64293 1429 ft 102 kts 81°
2026-04-15 13:39 52.42952 20.65456 1379 ft 102 kts 82°
2026-04-15 13:40 52.43052 20.66605 1329 ft 102 kts 82°
2026-04-15 13:40 52.43154 20.67778 1279 ft 102 kts 82°
2026-04-15 13:40 52.43256 20.68920 1229 ft 102 kts 81°
2026-04-15 13:40 52.43451 20.69944 1187 ft 87 kts 58°
2026-04-15 13:41 52.43864 20.70605 1109 ft 82 kts 33°
2026-04-15 13:41 52.44414 20.70821 999 ft 84 kts 351°
2026-04-15 13:41 52.44931 20.70387 863 ft 85 kts 328°
2026-04-15 13:41 52.45370 20.69787 770 ft 80 kts 303°
2026-04-15 13:42 52.45478 20.68905 646 ft 79 kts 267°
2026-04-15 13:42 52.45420 20.68024 539 ft 74 kts 260°
2026-04-15 13:42 52.45327 20.67254 448 ft 69 kts 260°
2026-04-15 13:42 52.45256 20.66485 357 ft 67 kts 261°
2026-04-15 13:43 52.45192 20.65786 344 ft 57 kts 260°
2026-04-15 13:43 52.45132 20.65166 344 ft 53 kts 262°
2026-04-15 13:43 52.45078 20.64592 344 ft 48 kts 261°
2026-04-15 13:43 52.44977 20.64386 344 ft 20 kts 182°
2026-04-15 13:44 52.44831 20.64377 344 ft 21 kts 181°
2026-04-15 13:44 52.44712 20.64389 344 ft 13 kts 104°
2026-04-15 13:44 52.44727 20.64528 344 ft 12 kts 80°
2026-04-15 13:44 52.44742 20.64677 344 ft 14 kts 81°
2026-04-15 13:45 52.44757 20.64851 344 ft 16 kts 81°
2026-04-15 13:45 52.44775 20.65040 344 ft 17 kts 81°
2026-04-15 13:45 52.44795 20.65247 344 ft 18 kts 80°
2026-04-15 13:47 52.44781 20.65715 344 ft 0 kts 13°
2026-04-15 13:47 52.44777 20.65712 344 ft 0 kts 67°
2026-04-15 13:47 52.44777 20.65710 344 ft 0 kts
2026-04-15 13:48 52.44783 20.65708 344 ft 0 kts 342°
2026-04-15 13:48 52.44787 20.65705 344 ft 0 kts 332°